METEOR-M 2

Last updated on Thu Nov 21 2024 00:02:19 GMT+0000 (Coordinated Universal Time)

1 40069U 14037A 24325.55325408 .00000306 00000+0 16011-3 0 9992 2 40069 98.4501 312.9194 0004564 263.6840 96.3819 14.21140450537839
UTC large
Height (km)
Speed (km/s)
/
Latitude / Longitude
Inclination (degrees)
Orbital Period (minutes)
Azimuth
Elevation
Range (km)
Doppler Factor

Next 0 passes for location: London (51.5072 / 0.1276)

Sorry there are no passes over London.